Time,TemperatureF,DewpointF,PressureIn,WindDirection,WindDirectionDegrees,WindSpeedMPH,WindSpeedGustMPH,Humidity,HourlyPrecipIn,Conditions,Clouds,dailyrainin,SoftwareType,DateUTC
2013-11-05 00:04:00,21.5,18.5,30.14,WNW,287,0.0,0.0,88,0.00,,,0.00,Wunderground v.1.15,2013-11-05 06:04:00,
2013-11-05 00:09:00,21.8,18.8,30.15,WNW,287,0.0,0.0,88,0.00,,,0.00,Wunderground v.1.15,2013-11-05 06:09:00,
2013-11-05 00:14:00,22.6,19.6,30.14,WNW,287,0.0,0.0,88,0.00,,,0.00,Wunderground v.1.15,2013-11-05 06:14:00,
2013-11-05 00:21:00,22.4,19.4,30.15,WNW,288,0.0,0.0,88,0.00,,,0.00,Wunderground v.1.15,2013-11-05 06:21:00,
2013-11-05 00:26:00,21.9,18.9,30.15,WNW,288,0.0,0.0,88,0.00,,,0.00,Wunderground v.1.15,2013-11-05 06:26:00,
2013-11-05 00:32:00,21.3,18.3,30.15,WNW,287,0.0,0.0,88,0.00,,,0.00,Wunderground v.1.15,2013-11-05 06:32:00,
2013-11-05 00:37:00,20.9,17.9,30.15,WNW,287,0.0,0.0,88,0.00,,,0.00,Wunderground v.1.15,2013-11-05 06:37:00,
2013-11-05 00:43:00,20.8,17.8,30.15,WNW,287,0.0,0.0,88,0.00,,,0.00,Wunderground v.1.15,2013-11-05 06:43:00,
2013-11-05 00:49:00,21.1,18.1,30.16,WNW,288,0.0,0.0,88,0.00,,,0.00,Wunderground v.1.15,2013-11-05 06:49:00,
2013-11-05 00:54:00,20.9,17.9,30.16,WNW,287,0.0,0.0,88,0.00,,,0.00,Wunderground v.1.15,2013-11-05 06:54:00,
2013-11-05 01:01:00,20.8,17.8,30.16,WNW,288,0.0,0.0,88,0.00,,,0.00,Wunderground v.1.15,2013-11-05 07:01:00,
2013-11-05 01:06:00,21.2,18.5,30.16,WNW,288,0.0,0.0,89,0.00,,,0.00,Wunderground v.1.15,2013-11-05 07:06:00,
2013-11-05 01:11:00,21.0,18.0,30.16,WNW,288,0.0,0.0,88,0.00,,,0.00,Wunderground v.1.15,2013-11-05 07:11:00,
2013-11-05 01:17:00,20.4,17.4,30.16,WNW,287,0.0,0.0,88,0.00,,,0.00,Wunderground v.1.15,2013-11-05 07:17:00,
2013-11-05 01:23:00,19.9,16.9,30.16,WNW,288,0.0,0.0,88,0.00,,,0.00,Wunderground v.1.15,2013-11-05 07:23:00,
2013-11-05 01:28:00,19.8,16.8,30.16,WNW,288,0.0,0.0,88,0.00,,,0.00,Wunderground v.1.15,2013-11-05 07:28:00,
2013-11-05 01:34:00,19.9,16.9,30.16,WNW,288,0.0,0.0,88,0.00,,,0.00,Wunderground v.1.15,2013-11-05 07:34:00,
2013-11-05 01:41:00,19.7,16.7,30.16,WNW,288,0.0,0.0,88,0.00,,,0.00,Wunderground v.1.15,2013-11-05 07:41:00,
2013-11-05 01:46:00,19.5,16.5,30.16,WNW,287,0.0,0.0,88,0.00,,,0.00,Wunderground v.1.15,2013-11-05 07:46:00,
2013-11-05 01:51:00,19.2,16.2,30.16,WNW,288,0.0,0.0,88,0.00,,,0.00,Wunderground v.1.15,2013-11-05 07:51:00,
2013-11-05 01:57:00,19.1,16.1,30.16,WNW,287,0.0,0.0,88,0.00,,,0.00,Wunderground v.1.15,2013-11-05 07:57:00,
2013-11-05 02:02:00,19.7,17.0,30.16,WNW,288,0.0,0.0,89,0.00,,,0.00,Wunderground v.1.15,2013-11-05 08:02:00,
2013-11-05 02:07:00,20.3,17.6,30.16,WNW,287,0.0,0.0,89,0.00,,,0.00,Wunderground v.1.15,2013-11-05 08:07:00,
2013-11-05 02:12:00,20.6,17.9,30.16,WNW,287,0.0,0.0,89,0.00,,,0.00,Wunderground v.1.15,2013-11-05 08:12:00,
2013-11-05 02:17:00,20.4,17.7,30.16,WNW,287,0.0,0.0,89,0.00,,,0.00,Wunderground v.1.15,2013-11-05 08:17:00,
2013-11-05 02:23:00,19.7,16.7,30.16,WNW,287,0.0,0.0,88,0.00,,,0.00,Wunderground v.1.15,2013-11-05 08:23:00,
2013-11-05 02:28:00,19.5,16.5,30.16,WNW,288,0.0,0.0,88,0.00,,,0.00,Wunderground v.1.15,2013-11-05 08:28:00,
2013-11-05 02:33:00,19.6,16.9,30.16,WNW,288,0.0,0.0,89,0.00,,,0.00,Wunderground v.1.15,2013-11-05 08:33:00,
2013-11-05 02:38:00,20.3,17.6,30.17,WNW,288,0.0,0.0,89,0.00,,,0.00,Wunderground v.1.15,2013-11-05 08:38:00,
2013-11-05 02:43:00,20.4,17.7,30.17,WNW,288,0.0,0.0,89,0.00,,,0.00,Wunderground v.1.15,2013-11-05 08:43:00,
2013-11-05 02:48:00,20.2,17.5,30.17,WNW,288,0.0,0.0,89,0.00,,,0.00,Wunderground v.1.15,2013-11-05 08:48:00,
2013-11-05 02:53:00,19.7,17.0,30.17,WNW,288,0.0,0.0,89,0.00,,,0.00,Wunderground v.1.15,2013-11-05 08:53:00,
2013-11-05 02:58:00,19.4,16.4,30.18,WNW,287,0.0,0.0,88,0.00,,,0.00,Wunderground v.1.15,2013-11-05 08:58:00,
2013-11-05 03:03:00,19.0,16.0,30.18,WNW,287,0.0,0.0,88,0.00,,,0.00,Wunderground v.1.15,2013-11-05 09:03:00,
2013-11-05 03:08:00,18.9,15.9,30.18,WNW,288,0.0,0.0,88,0.00,,,0.00,Wunderground v.1.15,2013-11-05 09:08:00,
2013-11-05 03:13:00,18.6,15.6,30.18,WNW,288,0.0,0.0,88,0.00,,,0.00,Wunderground v.1.15,2013-11-05 09:13:00,
2013-11-05 03:18:00,18.5,15.5,30.18,WNW,287,0.0,0.0,88,0.00,,,0.00,Wunderground v.1.15,2013-11-05 09:18:00,
2013-11-05 03:23:00,18.2,15.2,30.18,WNW,288,0.0,0.0,88,0.00,,,0.00,Wunderground v.1.15,2013-11-05 09:23:00,
2013-11-05 03:28:00,18.1,15.1,30.18,WNW,288,0.0,0.0,88,0.00,,,0.00,Wunderground v.1.15,2013-11-05 09:28:00,
2013-11-05 03:33:00,18.1,15.1,30.18,WNW,287,0.0,0.0,88,0.00,,,0.00,Wunderground v.1.15,2013-11-05 09:33:00,
2013-11-05 03:38:00,18.0,15.0,30.18,WNW,288,0.0,0.0,88,0.00,,,0.00,Wunderground v.1.15,2013-11-05 09:38:00,
2013-11-05 03:43:00,18.1,15.1,30.18,WNW,287,0.0,0.0,88,0.00,,,0.00,Wunderground v.1.15,2013-11-05 09:43:00,
2013-11-05 03:48:00,18.0,15.3,30.18,WNW,288,0.0,0.0,89,0.00,,,0.00,Wunderground v.1.15,2013-11-05 09:48:00,
2013-11-05 03:53:00,17.9,14.9,30.19,WNW,288,0.0,0.0,88,0.00,,,0.00,Wunderground v.1.15,2013-11-05 09:53:00,
2013-11-05 03:58:00,17.8,14.8,30.19,WNW,288,0.0,0.0,88,0.00,,,0.00,Wunderground v.1.15,2013-11-05 09:58:00,
2013-11-05 04:03:00,18.1,15.4,30.18,WNW,288,0.0,0.0,89,0.00,,,0.00,Wunderground v.1.15,2013-11-05 10:03:00,
2013-11-05 04:08:00,18.4,15.7,30.18,WNW,287,0.0,0.0,89,0.00,,,0.00,Wunderground v.1.15,2013-11-05 10:08:00,
2013-11-05 04:13:00,18.7,16.0,30.18,WNW,287,0.0,0.0,89,0.00,,,0.00,Wunderground v.1.15,2013-11-05 10:13:00,
2013-11-05 04:18:00,18.5,15.8,30.18,WNW,288,0.0,0.0,89,0.00,,,0.00,Wunderground v.1.15,2013-11-05 10:18:00,
2013-11-05 04:23:00,18.2,15.5,30.18,WNW,287,0.0,0.0,89,0.00,,,0.00,Wunderground v.1.15,2013-11-05 10:23:00,
2013-11-05 04:28:00,18.0,15.0,30.18,WNW,288,0.0,0.0,88,0.00,,,0.00,Wunderground v.1.15,2013-11-05 10:28:00,
2013-11-05 04:33:00,17.8,14.8,30.18,WNW,288,0.0,0.0,88,0.00,,,0.00,Wunderground v.1.15,2013-11-05 10:33:00,
2013-11-05 04:38:00,17.6,14.7,30.19,WNW,288,0.0,0.0,88,0.00,,,0.00,Wunderground v.1.15,2013-11-05 10:38:00,
2013-11-05 04:43:00,17.4,14.5,30.19,WNW,288,0.0,0.0,88,0.00,,,0.00,Wunderground v.1.15,2013-11-05 10:43:00,
2013-11-05 04:48:00,17.4,14.5,30.19,WNW,288,0.0,0.0,88,0.00,,,0.00,Wunderground v.1.15,2013-11-05 10:48:00,
2013-11-05 04:53:00,17.4,14.5,30.19,WNW,287,0.0,0.0,88,0.00,,,0.00,Wunderground v.1.15,2013-11-05 10:53:00,
2013-11-05 04:58:00,17.4,14.5,30.19,WNW,288,0.0,0.0,88,0.00,,,0.00,Wunderground v.1.15,2013-11-05 10:58:00,
2013-11-05 05:03:00,17.4,14.7,30.19,WNW,287,0.0,0.0,89,0.00,,,0.00,Wunderground v.1.15,2013-11-05 11:03:00,
2013-11-05 05:08:00,17.6,14.7,30.20,WNW,288,0.0,0.0,88,0.00,,,0.00,Wunderground v.1.15,2013-11-05 11:08:00,
2013-11-05 05:13:00,17.8,15.1,30.19,WNW,288,0.0,0.0,89,0.00,,,0.00,Wunderground v.1.15,2013-11-05 11:13:00,
2013-11-05 05:18:00,18.2,15.5,30.19,WNW,288,0.0,0.0,89,0.00,,,0.00,Wunderground v.1.15,2013-11-05 11:18:00,
2013-11-05 05:23:00,18.8,16.1,30.19,WNW,288,0.0,0.0,89,0.00,,,0.00,Wunderground v.1.15,2013-11-05 11:23:00,
2013-11-05 05:28:00,19.3,16.6,30.19,WNW,288,0.0,0.0,89,0.00,,,0.00,Wunderground v.1.15,2013-11-05 11:28:00,
2013-11-05 05:33:00,20.0,17.3,30.18,WNW,288,0.0,0.0,89,0.00,,,0.00,Wunderground v.1.15,2013-11-05 11:33:00,
2013-11-05 05:38:00,20.4,17.7,30.18,WNW,287,0.0,0.0,89,0.00,,,0.00,Wunderground v.1.15,2013-11-05 11:38:00,
2013-11-05 05:43:00,20.5,17.8,30.18,WNW,288,0.0,0.0,89,0.00,,,0.00,Wunderground v.1.15,2013-11-05 11:43:00,
2013-11-05 05:48:00,20.8,18.1,30.19,WNW,288,0.0,0.0,89,0.00,,,0.00,Wunderground v.1.15,2013-11-05 11:48:00,
2013-11-05 05:53:00,20.9,18.2,30.18,WNW,287,0.0,0.0,89,0.00,,,0.00,Wunderground v.1.15,2013-11-05 11:53:00,
2013-11-05 05:58:00,21.0,18.3,30.18,WNW,288,0.0,0.0,89,0.00,,,0.00,Wunderground v.1.15,2013-11-05 11:58:00,
2013-11-05 06:03:00,21.1,18.4,30.18,WNW,288,0.0,0.0,89,0.00,,,0.00,Wunderground v.1.15,2013-11-05 12:03:00,
2013-11-05 06:08:00,21.6,18.9,30.17,WNW,287,0.0,0.0,89,0.00,,,0.00,Wunderground v.1.15,2013-11-05 12:08:00,
2013-11-05 06:13:00,22.3,19.8,30.17,WNW,288,0.0,0.0,90,0.00,,,0.00,Wunderground v.1.15,2013-11-05 12:13:00,
2013-11-05 06:18:00,22.4,19.6,30.17,WNW,288,0.0,0.0,89,0.00,,,0.00,Wunderground v.1.15,2013-11-05 12:18:00,
2013-11-05 06:23:00,22.2,19.5,30.17,WNW,288,0.0,0.0,89,0.00,,,0.00,Wunderground v.1.15,2013-11-05 12:23:00,
2013-11-05 06:28:00,22.0,19.3,30.18,WNW,288,0.0,0.0,89,0.00,,,0.00,Wunderground v.1.15,2013-11-05 12:28:00,
2013-11-05 06:33:00,21.7,19.0,30.18,WNW,288,0.0,0.0,89,0.00,,,0.00,Wunderground v.1.15,2013-11-05 12:33:00,
2013-11-05 06:38:00,21.5,18.8,30.18,WNW,288,0.0,0.0,89,0.00,,,0.00,Wunderground v.1.15,2013-11-05 12:38:00,
2013-11-05 06:43:00,21.3,18.6,30.18,WNW,288,0.0,0.0,89,0.00,,,0.00,Wunderground v.1.15,2013-11-05 12:43:00,
2013-11-05 06:49:00,21.3,18.6,30.18,WNW,287,0.0,0.0,89,0.00,,,0.00,Wunderground v.1.15,2013-11-05 12:49:00,
2013-11-05 06:54:00,21.2,18.5,30.18,WNW,288,0.0,0.0,89,0.00,,,0.00,Wunderground v.1.15,2013-11-05 12:54:00,
2013-11-05 06:59:00,20.8,18.1,30.18,WNW,287,0.0,0.0,89,0.00,,,0.00,Wunderground v.1.15,2013-11-05 12:59:00,
2013-11-05 07:04:00,20.7,18.0,30.18,WNW,288,0.0,0.0,89,0.00,,,0.00,Wunderground v.1.15,2013-11-05 13:04:00,
2013-11-05 07:09:00,20.8,18.1,30.18,WNW,287,0.0,0.0,89,0.00,,,0.00,Wunderground v.1.15,2013-11-05 13:09:00,
2013-11-05 07:14:00,20.7,18.0,30.18,WNW,288,0.0,0.0,89,0.00,,,0.00,Wunderground v.1.15,2013-11-05 13:14:00,
2013-11-05 07:19:00,20.7,18.0,30.18,WNW,288,0.0,0.0,89,0.00,,,0.00,Wunderground v.1.15,2013-11-05 13:19:00,
2013-11-05 07:24:00,20.7,18.0,30.18,WNW,287,0.0,0.0,89,0.00,,,0.00,Wunderground v.1.15,2013-11-05 13:24:00,
2013-11-05 07:29:00,20.9,18.2,30.18,WNW,288,0.0,0.0,89,0.00,,,0.00,Wunderground v.1.15,2013-11-05 13:29:00,
2013-11-05 07:34:00,21.2,18.5,30.18,WNW,288,0.0,0.0,89,0.00,,,0.00,Wunderground v.1.15,2013-11-05 13:34:00,
2013-11-05 07:39:00,21.6,19.1,30.19,WNW,287,0.0,0.0,90,0.00,,,0.00,Wunderground v.1.15,2013-11-05 13:39:00,
2013-11-05 07:44:00,22.2,19.7,30.19,WNW,288,0.0,0.0,90,0.00,,,0.00,Wunderground v.1.15,2013-11-05 13:44:00,
2013-11-05 07:49:00,23.1,22.6,30.19,WNW,288,0.0,0.0,98,0.00,,,0.00,Wunderground v.1.15,2013-11-05 13:49:00,
2013-11-05 07:54:00,23.8,21.3,30.19,WNW,287,0.0,0.0,90,0.00,,,0.00,Wunderground v.1.15,2013-11-05 13:54:00,
2013-11-05 07:59:00,24.7,22.2,30.19,WNW,288,0.0,0.0,90,0.00,,,0.00,Wunderground v.1.15,2013-11-05 13:59:00,
2013-11-05 08:04:00,25.9,23.4,30.19,WNW,288,0.0,2.0,90,0.00,,,0.00,Wunderground v.1.15,2013-11-05 14:04:00,
2013-11-05 08:09:00,26.8,24.3,30.19,WNW,287,0.0,2.0,90,0.00,,,0.00,Wunderground v.1.15,2013-11-05 14:09:00,
2013-11-05 08:14:00,27.4,24.9,30.19,WNW,287,0.0,0.0,90,0.00,,,0.00,Wunderground v.1.15,2013-11-05 14:14:00,
2013-11-05 08:19:00,28.2,25.6,30.19,WNW,288,0.0,0.0,90,0.00,,,0.00,Wunderground v.1.15,2013-11-05 14:19:00,
2013-11-05 08:25:00,29.0,26.4,30.19,WNW,288,0.0,0.0,90,0.00,,,0.00,Wunderground v.1.15,2013-11-05 14:25:00,
2013-11-05 08:30:00,29.6,27.0,30.19,WNW,288,0.0,0.0,90,0.00,,,0.00,Wunderground v.1.15,2013-11-05 14:30:00,
2013-11-05 08:35:00,29.9,27.3,30.19,WNW,287,0.0,0.0,90,0.00,,,0.00,Wunderground v.1.15,2013-11-05 14:35:00,
2013-11-05 08:40:00,29.9,27.3,30.19,WNW,287,0.0,0.0,90,0.00,,,0.00,Wunderground v.1.15,2013-11-05 14:40:00,
2013-11-05 08:45:00,30.2,27.6,30.18,WNW,288,3.0,5.0,90,0.00,,,0.00,Wunderground v.1.15,2013-11-05 14:45:00,
2013-11-05 08:50:00,30.7,28.1,30.18,WNW,287,3.0,6.0,90,0.00,,,0.00,Wunderground v.1.15,2013-11-05 14:50:00,
2013-11-05 08:55:00,31.1,28.2,30.17,WNW,288,2.0,6.0,89,0.00,,,0.00,Wunderground v.1.15,2013-11-05 14:55:00,
2013-11-05 09:00:00,31.5,28.6,30.17,WNW,290,4.0,6.0,89,0.00,,,0.00,Wunderground v.1.15,2013-11-05 15:00:00,
2013-11-05 09:05:00,32.0,29.1,30.18,WNW,290,1.0,6.0,89,0.00,,,0.00,Wunderground v.1.15,2013-11-05 15:05:00,
2013-11-05 09:10:00,32.4,29.2,30.19,WNW,290,4.0,6.0,88,0.00,,,0.00,Wunderground v.1.15,2013-11-05 15:10:00,
2013-11-05 09:15:00,32.7,29.5,30.19,WNW,290,4.0,6.0,88,0.00,,,0.00,Wunderground v.1.15,2013-11-05 15:15:00,
2013-11-05 09:20:00,32.9,29.5,30.19,NW,324,5.0,8.0,87,0.00,,,0.00,Wunderground v.1.15,2013-11-05 15:20:00,
2013-11-05 09:25:00,33.2,29.5,30.19,NNW,346,2.0,7.0,86,0.00,,,0.00,Wunderground v.1.15,2013-11-05 15:25:00,
2013-11-05 09:30:00,33.3,29.6,30.20,NNW,346,0.0,7.0,86,0.00,,,0.00,Wunderground v.1.15,2013-11-05 15:30:00,
2013-11-05 09:35:00,33.4,29.7,30.21,NNW,346,0.0,3.0,86,0.00,,,0.00,Wunderground v.1.15,2013-11-05 15:35:00,
2013-11-05 09:40:00,33.4,29.7,30.20,NNW,346,0.0,3.0,86,0.00,,,0.00,Wunderground v.1.15,2013-11-05 15:40:00,
2013-11-05 09:45:00,33.3,29.3,30.21,NNW,346,0.0,1.0,85,0.00,,,0.00,Wunderground v.1.15,2013-11-05 15:45:00,
2013-11-05 09:50:00,33.0,29.0,30.21,NNW,346,0.0,2.0,85,0.00,,,0.00,Wunderground v.1.15,2013-11-05 15:50:00,
2013-11-05 09:55:00,32.9,28.9,30.21,NNW,346,0.0,0.0,85,0.00,,,0.00,Wunderground v.1.15,2013-11-05 15:55:00,
2013-11-05 10:00:00,32.9,28.9,30.21,NNW,346,0.0,0.0,85,0.00,,,0.00,Wunderground v.1.15,2013-11-05 16:00:00,
2013-11-05 10:05:00,33.0,29.0,30.21,NNW,346,0.0,0.0,85,0.00,,,0.00,Wunderground v.1.15,2013-11-05 16:05:00,
2013-11-05 10:10:00,33.1,29.1,30.21,NNW,345,0.0,0.0,85,0.00,,,0.00,Wunderground v.1.15,2013-11-05 16:10:00,
2013-11-05 10:15:00,33.2,29.2,30.22,NNW,346,0.0,0.0,85,0.00,,,0.00,Wunderground v.1.15,2013-11-05 16:15:00,
2013-11-05 10:20:00,33.4,29.7,30.21,NNW,345,0.0,0.0,86,0.00,,,0.00,Wunderground v.1.15,2013-11-05 16:20:00,
2013-11-05 10:25:00,33.5,29.8,30.22,NNW,346,0.0,0.0,86,0.00,,,0.00,Wunderground v.1.15,2013-11-05 16:25:00,
2013-11-05 10:30:00,33.7,30.0,30.20,NNW,346,2.0,2.0,86,0.00,,,0.00,Wunderground v.1.15,2013-11-05 16:30:00,
2013-11-05 10:35:00,33.9,30.2,30.21,NNW,346,0.0,3.0,86,0.00,,,0.00,Wunderground v.1.15,2013-11-05 16:35:00,
2013-11-05 10:40:00,34.1,30.4,30.21,NNW,345,0.0,0.0,86,0.00,,,0.00,Wunderground v.1.15,2013-11-05 16:40:00,
2013-11-05 10:45:00,34.4,30.6,30.20,NNW,346,2.0,4.0,86,0.00,,,0.00,Wunderground v.1.15,2013-11-05 16:45:00,
2013-11-05 10:50:00,34.4,30.6,30.21,NNW,346,0.0,1.0,86,0.00,,,0.00,Wunderground v.1.15,2013-11-05 16:50:00,
2013-11-05 10:55:00,34.8,31.3,30.21,NNW,346,0.0,3.0,87,0.00,,,0.00,Wunderground v.1.15,2013-11-05 16:55:00,
2013-11-05 11:00:00,35.1,31.3,30.21,NNW,345,0.0,1.0,86,0.00,,,0.00,Wunderground v.1.15,2013-11-05 17:00:00,
2013-11-05 11:05:00,35.3,33.2,30.21,NNW,346,4.0,4.0,92,0.00,,,0.00,Wunderground v.1.15,2013-11-05 17:05:00,
2013-11-05 11:11:00,35.4,31.6,30.21,NNW,346,2.0,4.0,86,0.00,,,0.00,Wunderground v.1.15,2013-11-05 17:11:00,
2013-11-05 11:16:00,35.6,31.5,30.21,NNW,346,1.0,5.0,85,0.00,,,0.00,Wunderground v.1.15,2013-11-05 17:16:00,
2013-11-05 11:21:00,35.8,31.4,30.20,NNW,346,0.0,2.0,84,0.00,,,0.00,Wunderground v.1.15,2013-11-05 17:21:00,
2013-11-05 11:26:00,35.8,31.1,30.20,NNW,345,2.0,7.0,83,0.00,,,0.00,Wunderground v.1.15,2013-11-05 17:26:00,
2013-11-05 11:31:00,35.9,30.9,30.19,NNW,346,4.0,5.0,82,0.00,,,0.00,Wunderground v.1.15,2013-11-05 17:31:00,
2013-11-05 11:36:00,36.1,31.1,30.19,NNW,345,3.0,6.0,82,0.00,,,0.00,Wunderground v.1.15,2013-11-05 17:36:00,
2013-11-05 11:41:00,36.1,30.8,30.19,NNW,345,1.0,4.0,81,0.00,,,0.00,Wunderground v.1.15,2013-11-05 17:41:00,
2013-11-05 11:46:00,36.2,30.9,30.19,NNW,346,3.0,4.0,81,0.00,,,0.00,Wunderground v.1.15,2013-11-05 17:46:00,
2013-11-05 11:51:00,36.3,30.7,30.18,NNW,346,0.0,4.0,80,0.00,,,0.00,Wunderground v.1.15,2013-11-05 17:51:00,
2013-11-05 11:56:00,36.4,30.8,30.17,NNW,346,4.0,5.0,80,0.00,,,0.00,Wunderground v.1.15,2013-11-05 17:56:00,
2013-11-05 12:01:00,36.5,30.6,30.17,NNW,345,3.0,6.0,79,0.00,,,0.00,Wunderground v.1.15,2013-11-05 18:01:00,
2013-11-05 12:06:00,36.6,30.7,30.17,NNW,345,6.0,8.0,79,0.00,,,0.00,Wunderground v.1.15,2013-11-05 18:06:00,
2013-11-05 12:11:00,36.6,30.7,30.16,NNW,346,3.0,6.0,79,0.00,,,0.00,Wunderground v.1.15,2013-11-05 18:11:00,
2013-11-05 12:16:00,36.6,31.0,30.15,NNW,346,7.0,8.0,80,0.00,,,0.00,Wunderground v.1.15,2013-11-05 18:16:00,
2013-11-05 12:22:00,36.5,30.9,30.14,North,5,6.0,8.0,80,0.00,,,0.00,Wunderground v.1.15,2013-11-05 18:22:00,
2013-11-05 12:27:00,36.6,31.3,30.14,North,5,2.0,9.0,81,0.00,,,0.00,Wunderground v.1.15,2013-11-05 18:27:00,
2013-11-05 12:32:00,36.5,31.2,30.13,North,5,5.0,8.0,81,0.00,,,0.00,Wunderground v.1.15,2013-11-05 18:32:00,
2013-11-05 12:37:00,36.6,31.6,30.13,North,11,10.0,10.0,82,0.00,,,0.00,Wunderground v.1.15,2013-11-05 18:37:00,
2013-11-05 12:42:00,36.6,31.6,30.13,NNE,16,8.0,8.0,82,0.00,,,0.00,Wunderground v.1.15,2013-11-05 18:42:00,
2013-11-05 12:47:00,36.6,31.6,30.12,NNE,16,5.0,8.0,82,0.00,,,0.01,Wunderground v.1.15,2013-11-05 18:47:00,
2013-11-05 12:52:00,36.9,31.9,30.11,NNE,21,3.0,11.0,82,0.00,,,0.01,Wunderground v.1.15,2013-11-05 18:52:00,
2013-11-05 12:57:00,37.2,31.9,30.11,NNE,22,6.0,11.0,81,0.00,,,0.01,Wunderground v.1.15,2013-11-05 18:57:00,
2013-11-05 13:02:00,37.5,32.2,30.11,NNE,22,4.0,6.0,81,0.00,,,0.01,Wunderground v.1.15,2013-11-05 19:02:00,
2013-11-05 13:07:00,37.6,32.3,30.10,NNE,22,7.0,7.0,81,0.00,,,0.01,Wunderground v.1.15,2013-11-05 19:07:00,
2013-11-05 13:12:00,37.7,32.4,30.09,NNE,25,7.0,9.0,81,0.00,,,0.01,Wunderground v.1.15,2013-11-05 19:12:00,
2013-11-05 13:17:00,37.8,32.5,30.09,NNE,28,6.0,10.0,81,0.00,,,0.01,Wunderground v.1.15,2013-11-05 19:17:00,
2013-11-05 13:22:00,37.7,32.4,30.08,NE,38,9.0,10.0,81,0.00,,,0.01,Wunderground v.1.15,2013-11-05 19:22:00,
2013-11-05 13:27:00,37.5,32.5,30.08,NE,41,9.0,10.0,82,0.00,,,0.01,Wunderground v.1.15,2013-11-05 19:27:00,
2013-11-05 13:32:00,37.3,32.0,30.08,NE,44,12.0,13.0,81,0.00,,,0.01,Wunderground v.1.15,2013-11-05 19:32:00,
2013-11-05 13:37:00,37.1,31.8,30.08,NE,44,8.0,13.0,81,0.00,,,0.01,Wunderground v.1.15,2013-11-05 19:37:00,
2013-11-05 13:42:00,36.9,31.9,30.08,NE,44,7.0,8.0,82,0.00,,,0.01,Wunderground v.1.15,2013-11-05 19:42:00,
2013-11-05 13:47:00,36.6,31.6,30.08,NE,44,2.0,10.0,82,0.00,,,0.01,Wunderground v.1.15,2013-11-05 19:47:00,
2013-11-05 13:52:00,36.2,31.2,30.07,NE,44,5.0,7.0,82,0.00,,,0.01,Wunderground v.1.15,2013-11-05 19:52:00,
2013-11-05 13:57:00,35.3,30.7,30.07,NE,37,9.0,12.0,83,0.00,,,0.02,Wunderground v.1.15,2013-11-05 19:57:00,
2013-11-05 14:02:00,34.3,30.0,30.07,NNE,33,6.0,9.0,84,0.00,,,0.02,Wunderground v.1.15,2013-11-05 20:02:00,
2013-11-05 14:07:00,33.5,29.5,30.07,NNE,32,5.0,11.0,85,0.00,,,0.02,Wunderground v.1.15,2013-11-05 20:07:00,
2013-11-05 14:12:00,32.9,29.2,30.06,NNE,32,9.0,11.0,86,0.00,,,0.02,Wunderground v.1.15,2013-11-05 20:12:00,
2013-11-05 14:17:00,32.5,29.1,30.06,NNE,32,6.0,11.0,87,0.00,,,0.02,Wunderground v.1.15,2013-11-05 20:17:00,
2013-11-05 14:22:00,32.3,28.9,30.06,NNE,32,7.0,9.0,87,0.00,,,0.02,Wunderground v.1.15,2013-11-05 20:22:00,
2013-11-05 14:27:00,32.2,29.0,30.06,NNE,33,7.0,9.0,88,0.00,,,0.02,Wunderground v.1.15,2013-11-05 20:27:00,
2013-11-05 14:32:00,32.1,28.9,30.05,NNE,33,8.0,8.0,88,0.00,,,0.02,Wunderground v.1.15,2013-11-05 20:32:00,
2013-11-05 14:37:00,32.0,29.1,30.05,NNE,33,7.0,8.0,89,0.00,,,0.02,Wunderground v.1.15,2013-11-05 20:37:00,
2013-11-05 14:42:00,31.9,29.0,30.05,NNE,33,6.0,9.0,89,0.00,,,0.02,Wunderground v.1.15,2013-11-05 20:42:00,
2013-11-05 14:47:00,31.9,29.0,30.05,NNE,33,4.0,9.0,89,0.00,,,0.02,Wunderground v.1.15,2013-11-05 20:47:00,
2013-11-05 14:52:00,31.8,28.9,30.05,NNE,29,10.0,12.0,89,0.00,,,0.02,Wunderground v.1.15,2013-11-05 20:52:00,
2013-11-05 14:57:00,31.8,29.2,30.05,NNE,29,5.0,12.0,90,0.00,,,0.02,Wunderground v.1.15,2013-11-05 20:57:00,
2013-11-05 15:02:00,31.9,29.3,30.04,NNE,28,8.0,10.0,90,0.00,,,0.02,Wunderground v.1.15,2013-11-05 21:02:00,
2013-11-05 15:07:00,31.9,29.3,30.04,NNE,28,9.0,10.0,90,0.00,,,0.02,Wunderground v.1.15,2013-11-05 21:07:00,
2013-11-05 15:12:00,31.9,29.3,30.03,NNE,26,7.0,8.0,90,0.00,,,0.02,Wunderground v.1.15,2013-11-05 21:12:00,
2013-11-05 15:17:00,31.9,29.3,30.03,NNE,26,5.0,9.0,90,0.00,,,0.02,Wunderground v.1.15,2013-11-05 21:17:00,
2013-11-05 15:22:00,31.9,29.3,30.03,NNE,26,6.0,9.0,90,0.00,,,0.02,Wunderground v.1.15,2013-11-05 21:22:00,
2013-11-05 15:27:00,31.9,29.3,30.04,NNE,26,7.0,11.0,90,0.00,,,0.02,Wunderground v.1.15,2013-11-05 21:27:00,
2013-11-05 15:32:00,31.9,29.3,30.03,NNE,25,7.0,9.0,90,0.00,,,0.02,Wunderground v.1.15,2013-11-05 21:32:00,
2013-11-05 15:37:00,31.9,29.6,30.02,NNE,25,5.0,10.0,91,0.00,,,0.03,Wunderground v.1.15,2013-11-05 21:37:00,
2013-11-05 15:42:00,31.9,29.3,30.02,NNE,24,8.0,9.0,90,0.00,,,0.03,Wunderground v.1.15,2013-11-05 21:42:00,
2013-11-05 15:47:00,31.9,29.3,30.01,NNE,24,8.0,11.0,90,0.00,,,0.03,Wunderground v.1.15,2013-11-05 21:47:00,
2013-11-05 15:53:00,31.9,29.6,30.01,NNE,26,7.0,10.0,91,0.00,,,0.03,Wunderground v.1.15,2013-11-05 21:53:00,
2013-11-05 15:57:00,31.9,29.6,30.01,NNE,28,8.0,12.0,91,0.00,,,0.03,Wunderground v.1.15,2013-11-05 21:57:00,
2013-11-05 16:02:00,31.9,29.6,30.00,NNE,26,8.0,9.0,91,0.00,,,0.03,Wunderground v.1.15,2013-11-05 22:02:00,
2013-11-05 16:07:00,31.9,29.6,30.00,NNE,30,6.0,12.0,91,0.00,,,0.03,Wunderground v.1.15,2013-11-05 22:07:00,
2013-11-05 16:13:00,31.9,29.6,30.01,NNE,26,7.0,11.0,91,0.00,,,0.03,Wunderground v.1.15,2013-11-05 22:13:00,
2013-11-05 16:18:00,31.9,29.6,30.01,NNE,24,9.0,11.0,91,0.00,,,0.04,Wunderground v.1.15,2013-11-05 22:18:00,
2013-11-05 16:23:00,31.8,29.5,30.01,NNE,21,6.0,12.0,91,0.00,,,0.04,Wunderground v.1.15,2013-11-05 22:23:00,
2013-11-05 16:28:00,31.8,29.5,30.01,NNE,23,9.0,12.0,91,0.00,,,0.04,Wunderground v.1.15,2013-11-05 22:28:00,
2013-11-05 16:33:00,31.9,29.6,30.01,NNE,22,7.0,11.0,91,0.00,,,0.04,Wunderground v.1.15,2013-11-05 22:33:00,
2013-11-05 16:38:00,31.9,29.6,30.01,NNE,24,7.0,12.0,91,0.00,,,0.04,Wunderground v.1.15,2013-11-05 22:38:00,
2013-11-05 16:43:00,31.8,29.7,30.01,NNE,21,9.0,10.0,92,0.00,,,0.04,Wunderground v.1.15,2013-11-05 22:43:00,
2013-11-05 16:48:00,31.8,29.7,30.01,NNE,29,7.0,11.0,92,0.00,,,0.04,Wunderground v.1.15,2013-11-05 22:48:00,
2013-11-05 16:53:00,31.8,29.7,30.00,NNE,31,7.0,14.0,92,0.00,,,0.04,Wunderground v.1.15,2013-11-05 22:53:00,
2013-11-05 16:58:00,31.8,29.7,29.99,NE,41,13.0,14.0,92,0.00,,,0.04,Wunderground v.1.15,2013-11-05 22:58:00,
2013-11-05 17:03:00,31.8,29.7,30.00,NE,37,11.0,12.0,92,0.00,,,0.04,Wunderground v.1.15,2013-11-05 23:03:00,
2013-11-05 17:08:00,31.7,29.6,29.99,NE,34,9.0,14.0,92,0.00,,,0.05,Wunderground v.1.15,2013-11-05 23:08:00,
2013-11-05 17:13:00,31.7,29.6,29.99,NE,37,9.0,16.0,92,0.00,,,0.05,Wunderground v.1.15,2013-11-05 23:13:00,
2013-11-05 17:18:00,31.7,29.6,29.98,NNE,24,9.0,16.0,92,0.00,,,0.05,Wunderground v.1.15,2013-11-05 23:18:00,
2013-11-05 17:23:00,31.7,29.6,29.99,NE,42,9.0,14.0,92,0.00,,,0.05,Wunderground v.1.15,2013-11-05 23:23:00,
2013-11-05 17:28:00,31.6,29.5,30.00,NNE,30,5.0,14.0,92,0.00,,,0.05,Wunderground v.1.15,2013-11-05 23:28:00,
2013-11-05 17:33:00,31.6,29.5,30.01,NNE,19,7.0,9.0,92,0.00,,,0.05,Wunderground v.1.15,2013-11-05 23:33:00,
2013-11-05 17:38:00,31.6,29.5,30.01,NNE,21,2.0,10.0,92,0.00,,,0.05,Wunderground v.1.15,2013-11-05 23:38:00,
2013-11-05 17:43:00,31.5,29.4,30.01,NNE,20,7.0,10.0,92,0.00,,,0.05,Wunderground v.1.15,2013-11-05 23:43:00,
2013-11-05 17:48:00,31.4,29.3,30.01,NNE,24,11.0,13.0,92,0.00,,,0.05,Wunderground v.1.15,2013-11-05 23:48:00,
2013-11-05 17:53:00,31.4,29.3,30.01,NNE,21,11.0,12.0,92,0.00,,,0.05,Wunderground v.1.15,2013-11-05 23:53:00,
2013-11-05 17:58:00,31.3,29.2,30.01,NNE,24,8.0,12.0,92,0.00,,,0.05,Wunderground v.1.15,2013-11-05 23:58:00,
2013-11-05 18:03:00,31.3,29.2,30.01,NNE,24,11.0,13.0,92,0.00,,,0.05,Wunderground v.1.15,2013-11-06 00:03:00,
2013-11-05 18:08:00,31.2,29.1,30.01,NNE,24,6.0,13.0,92,0.00,,,0.05,Wunderground v.1.15,2013-11-06 00:08:00,
2013-11-05 18:13:00,31.2,29.1,30.01,NNE,22,8.0,10.0,92,0.00,,,0.05,Wunderground v.1.15,2013-11-06 00:13:00,
2013-11-05 18:18:00,31.2,29.1,30.01,NNE,21,8.0,12.0,92,0.00,,,0.05,Wunderground v.1.15,2013-11-06 00:18:00,
2013-11-05 18:23:00,31.2,29.1,30.01,NNE,21,9.0,12.0,92,0.00,,,0.05,Wunderground v.1.15,2013-11-06 00:23:00,
2013-11-05 18:28:00,31.2,29.1,30.01,NNE,21,10.0,12.0,92,0.00,,,0.05,Wunderground v.1.15,2013-11-06 00:28:00,
2013-11-05 18:33:00,31.1,29.0,30.01,NNE,21,7.0,11.0,92,0.00,,,0.05,Wunderground v.1.15,2013-11-06 00:33:00,
2013-11-05 18:38:00,31.1,29.0,30.01,NNE,21,11.0,12.0,92,0.00,,,0.05,Wunderground v.1.15,2013-11-06 00:38:00,
2013-11-05 18:43:00,31.1,29.0,30.01,NNE,21,6.0,11.0,92,0.00,,,0.05,Wunderground v.1.15,2013-11-06 00:43:00,
2013-11-05 18:48:00,31.1,29.0,30.01,NNE,21,5.0,12.0,92,0.00,,,0.05,Wunderground v.1.15,2013-11-06 00:48:00,
2013-11-05 18:53:00,31.0,28.9,30.00,NNE,21,6.0,11.0,92,0.00,,,0.05,Wunderground v.1.15,2013-11-06 00:53:00,
2013-11-05 18:58:00,31.1,29.3,30.01,NNE,21,8.0,12.0,93,0.00,,,0.05,Wunderground v.1.15,2013-11-06 00:58:00,
2013-11-05 19:03:00,31.1,29.3,30.00,NNE,21,6.0,10.0,93,0.00,,,0.05,Wunderground v.1.15,2013-11-06 01:03:00,
2013-11-05 19:08:00,31.1,29.3,30.00,NNE,21,6.0,13.0,93,0.00,,,0.05,Wunderground v.1.15,2013-11-06 01:08:00,
2013-11-05 19:13:00,31.2,29.4,30.00,NNE,21,9.0,10.0,93,0.00,,,0.05,Wunderground v.1.15,2013-11-06 01:13:00,
2013-11-05 19:18:00,31.2,29.4,30.00,NNE,21,9.0,11.0,93,0.00,,,0.05,Wunderground v.1.15,2013-11-06 01:18:00,
2013-11-05 19:23:00,31.2,29.4,30.01,NNE,21,0.0,10.0,93,0.00,,,0.05,Wunderground v.1.15,2013-11-06 01:23:00,
2013-11-05 19:28:00,31.2,29.4,30.01,NNE,21,9.0,12.0,93,0.00,,,0.05,Wunderground v.1.15,2013-11-06 01:28:00,
2013-11-05 19:33:00,31.1,29.3,30.01,NNE,21,9.0,11.0,93,0.00,,,0.05,Wunderground v.1.15,2013-11-06 01:33:00,
2013-11-05 19:38:00,31.0,29.2,30.00,NNE,21,4.0,11.0,93,0.00,,,0.05,Wunderground v.1.15,2013-11-06 01:38:00,
2013-11-05 19:43:00,31.0,29.2,30.00,NNE,21,0.0,9.0,93,0.00,,,0.05,Wunderground v.1.15,2013-11-06 01:43:00,
2013-11-05 19:48:00,30.9,29.1,30.00,NNE,21,1.0,10.0,93,0.00,,,0.05,Wunderground v.1.15,2013-11-06 01:48:00,
2013-11-05 19:53:00,30.9,29.1,30.01,NNE,21,8.0,11.0,93,0.00,,,0.05,Wunderground v.1.15,2013-11-06 01:53:00,
2013-11-05 19:58:00,31.0,29.2,30.01,NNE,21,3.0,11.0,93,0.00,,,0.05,Wunderground v.1.15,2013-11-06 01:58:00,
2013-11-05 20:03:00,31.0,29.2,30.01,NNE,21,5.0,12.0,93,0.00,,,0.05,Wunderground v.1.15,2013-11-06 02:03:00,
2013-11-05 20:08:00,31.0,29.2,30.00,NNE,21,1.0,12.0,93,0.00,,,0.05,Wunderground v.1.15,2013-11-06 02:08:00,
2013-11-05 20:13:00,31.1,29.3,30.01,NNE,21,1.0,8.0,93,0.00,,,0.05,Wunderground v.1.15,2013-11-06 02:13:00,
2013-11-05 20:18:00,31.1,29.3,30.01,NNE,21,0.0,8.0,93,0.00,,,0.05,Wunderground v.1.15,2013-11-06 02:18:00,
2013-11-05 20:23:00,31.1,29.3,30.01,NNE,21,0.0,7.0,93,0.00,,,0.05,Wunderground v.1.15,2013-11-06 02:23:00,
2013-11-05 20:28:00,31.1,29.3,30.01,NNE,21,0.0,7.0,93,0.00,,,0.05,Wunderground v.1.15,2013-11-06 02:28:00,
2013-11-05 20:34:00,31.1,29.3,30.01,NNE,21,0.0,1.0,93,0.00,,,0.05,Wunderground v.1.15,2013-11-06 02:34:00,
2013-11-05 20:39:00,31.1,29.3,30.01,NNE,21,0.0,3.0,93,0.00,,,0.05,Wunderground v.1.15,2013-11-06 02:39:00,
2013-11-05 20:44:00,31.1,29.3,30.01,NNE,21,0.0,1.0,93,0.00,,,0.05,Wunderground v.1.15,2013-11-06 02:44:00,
2013-11-05 20:49:00,31.1,29.3,30.02,NNE,21,0.0,1.0,93,0.00,,,0.05,Wunderground v.1.15,2013-11-06 02:49:00,
2013-11-05 20:54:00,31.1,29.3,30.02,NNE,21,0.0,3.0,93,0.00,,,0.05,Wunderground v.1.15,2013-11-06 02:54:00,
2013-11-05 20:59:00,31.0,29.2,30.02,NNE,21,0.0,3.0,93,0.00,,,0.05,Wunderground v.1.15,2013-11-06 02:59:00,
2013-11-05 21:04:00,31.0,29.2,30.02,NNE,21,1.0,1.0,93,0.00,,,0.05,Wunderground v.1.15,2013-11-06 03:04:00,
2013-11-05 21:09:00,31.0,29.2,30.02,NNE,21,0.0,2.0,93,0.00,,,0.05,Wunderground v.1.15,2013-11-06 03:09:00,
2013-11-05 21:14:00,31.0,29.2,30.02,NNE,21,0.0,2.0,93,0.00,,,0.05,Wunderground v.1.15,2013-11-06 03:14:00,
2013-11-05 21:19:00,30.9,29.1,30.03,NNE,21,0.0,4.0,93,0.00,,,0.05,Wunderground v.1.15,2013-11-06 03:19:00,
2013-11-05 21:24:00,30.9,29.1,30.03,NNE,21,1.0,5.0,93,0.00,,,0.05,Wunderground v.1.15,2013-11-06 03:24:00,
2013-11-05 21:29:00,30.5,28.7,30.02,NNE,21,0.0,6.0,93,0.00,,,0.05,Wunderground v.1.15,2013-11-06 03:29:00,
2013-11-05 21:34:00,30.2,28.4,30.02,NNE,21,0.0,5.0,93,0.00,,,0.05,Wunderground v.1.15,2013-11-06 03:34:00,
2013-11-05 21:39:00,30.1,28.3,30.03,NNE,21,0.0,5.0,93,0.00,,,0.05,Wunderground v.1.15,2013-11-06 03:39:00,
2013-11-05 21:44:00,29.9,28.1,30.03,NNE,21,0.0,3.0,93,0.00,,,0.05,Wunderground v.1.15,2013-11-06 03:44:00,
2013-11-05 21:49:00,29.9,28.1,30.03,NNE,21,0.0,3.0,93,0.00,,,0.05,Wunderground v.1.15,2013-11-06 03:49:00,
2013-11-05 21:54:00,29.8,28.0,30.02,NNE,21,0.0,6.0,93,0.00,,,0.05,Wunderground v.1.15,2013-11-06 03:54:00,
2013-11-05 21:59:00,29.8,28.0,30.02,NNE,21,0.0,6.0,93,0.00,,,0.05,Wunderground v.1.15,2013-11-06 03:59:00,
2013-11-05 22:04:00,29.8,28.0,30.03,NNE,21,6.0,6.0,93,0.00,,,0.05,Wunderground v.1.15,2013-11-06 04:04:00,
2013-11-05 22:09:00,29.7,27.9,30.03,NNE,21,0.0,6.0,93,0.00,,,0.05,Wunderground v.1.15,2013-11-06 04:09:00,
2013-11-05 22:14:00,29.6,27.8,30.03,NNE,21,0.0,6.0,93,0.00,,,0.05,Wunderground v.1.15,2013-11-06 04:14:00,
2013-11-05 22:19:00,29.6,27.8,30.04,NNE,21,2.0,6.0,93,0.00,,,0.05,Wunderground v.1.15,2013-11-06 04:19:00,
2013-11-05 22:24:00,29.5,27.7,30.04,NNE,21,3.0,5.0,93,0.00,,,0.05,Wunderground v.1.15,2013-11-06 04:24:00,
2013-11-05 22:29:00,29.5,27.7,30.04,NNE,21,4.0,7.0,93,0.00,,,0.05,Wunderground v.1.15,2013-11-06 04:29:00,
2013-11-05 22:34:00,29.5,27.7,30.04,NNE,21,5.0,8.0,93,0.00,,,0.05,Wunderground v.1.15,2013-11-06 04:34:00,
2013-11-05 22:39:00,29.5,27.7,30.03,NNE,21,2.0,8.0,93,0.00,,,0.05,Wunderground v.1.15,2013-11-06 04:39:00,
2013-11-05 22:44:00,29.5,27.7,30.03,NNE,21,1.0,4.0,93,0.00,,,0.05,Wunderground v.1.15,2013-11-06 04:44:00,
2013-11-05 22:49:00,29.5,27.7,30.03,NNE,21,1.0,6.0,93,0.00,,,0.05,Wunderground v.1.15,2013-11-06 04:49:00,
2013-11-05 22:54:00,29.4,27.6,30.03,NNE,21,2.0,8.0,93,0.00,,,0.05,Wunderground v.1.15,2013-11-06 04:54:00,
2013-11-05 22:59:00,29.5,27.7,30.03,NNE,21,4.0,8.0,93,0.00,,,0.05,Wunderground v.1.15,2013-11-06 04:59:00,
2013-11-05 23:01:00,29.5,27.7,30.03,NNE,21,3.0,3.0,93,0.00,,,0.05,Wunderground v.1.15,2013-11-06 05:01:00,
2013-11-05 23:02:00,29.5,27.7,30.03,NNE,21,0.0,5.0,93,0.00,,,0.05,Wunderground v.1.15,2013-11-06 05:02:00,
2013-11-05 23:07:00,29.6,27.8,30.04,NNE,21,2.0,7.0,93,0.00,,,0.05,Wunderground v.1.15,2013-11-06 05:07:00,
2013-11-05 23:12:00,29.6,27.8,30.04,NNE,21,0.0,6.0,93,0.00,,,0.05,Wunderground v.1.15,2013-11-06 05:12:00,
2013-11-05 23:17:00,29.7,27.9,30.04,NNE,21,1.0,7.0,93,0.00,,,0.05,Wunderground v.1.15,2013-11-06 05:17:00,
2013-11-05 23:22:00,29.7,27.9,30.04,NNE,21,3.0,4.0,93,0.00,,,0.05,Wunderground v.1.15,2013-11-06 05:22:00,
2013-11-05 23:27:00,29.7,27.9,30.04,NNE,21,0.0,6.0,93,0.00,,,0.05,Wunderground v.1.15,2013-11-06 05:27:00,
2013-11-05 23:32:00,29.7,27.9,30.04,NNE,21,4.0,4.0,93,0.00,,,0.05,Wunderground v.1.15,2013-11-06 05:32:00,
2013-11-05 23:37:00,29.6,27.8,30.04,NNE,21,4.0,5.0,93,0.00,,,0.05,Wunderground v.1.15,2013-11-06 05:37:00,
2013-11-05 23:42:00,29.6,27.8,30.05,NNE,21,4.0,5.0,93,0.00,,,0.05,Wunderground v.1.15,2013-11-06 05:42:00,
2013-11-05 23:47:00,29.4,27.6,30.04,NNE,21,5.0,7.0,93,0.00,,,0.05,Wunderground v.1.15,2013-11-06 05:47:00,
2013-11-05 23:52:00,29.2,27.4,30.04,NNE,21,5.0,6.0,93,0.00,,,0.05,Wunderground v.1.15,2013-11-06 05:52:00,
2013-11-05 23:57:00,29.2,27.4,30.05,NNE,21,7.0,7.0,93,0.00,,,0.05,Wunderground v.1.15,2013-11-06 05:57:00,